Weather reports worldwide

Advertisment
Falsterbo, Sweden (2616): temperature & dewpoint: 14.10.2019 04:00:00 - 20.10.2019 04:00:00 (CEST)Falsterbo, Sweden (2616): wind speed: 14.10.2019 04:00:00 - 20.10.2019 04:00:00 (CEST)Falsterbo, Sweden (2616): wind direction: 14.10.2019 04:00:00 - 20.10.2019 04:00:00 (CEST)Falsterbo, Sweden (2616): reduced air pressure: 14.10.2019 04:00:00 - 20.10.2019 04:00:00 (CEST)Falsterbo, Sweden (2616): visibility: 14.10.2019 04:00:00 - 20.10.2019 04:00:00 (CEST)
Date & Time tt [°C] td [°C] ff [km/h] ff [kn] dd ppp [hPa] vv [km]
20.10.2019 04:00:00 - - - - - - -
20.10.2019 03:00:00 - - - - - - -
20.10.2019 02:00:00 12,7 12,1 25 14 SSW 1007,2 35
20.10.2019 01:00:00 - - - - - - -
20.10.2019 00:00:00 - - - - - - -
19.10.2019 23:00:00 12,7 12,2 36 19 S 1006,7 7
19.10.2019 22:00:00 - - - - - - -
19.10.2019 21:00:00 - - - - - - -
19.10.2019 20:00:00 13,0 11,2 29 16 S 1006,7 35
19.10.2019 19:00:00 - - - - - - -
19.10.2019 18:00:00 - - - - - - -
19.10.2019 17:00:00 12,9 10,8 25 14 S 1006,9 25
19.10.2019 16:00:00 - - - - - - -
19.10.2019 15:00:00 - - - - - - -
19.10.2019 14:00:00 14,7 11,1 32 18 S 1007,6 28
19.10.2019 13:00:00 - - - - - - -
19.10.2019 12:00:00 - - - - - - -
19.10.2019 11:00:00 12,0 9,7 32 18 SSW 1007,5 45
19.10.2019 10:00:00 - - - - - - -
19.10.2019 09:00:00 - - - - - - -
19.10.2019 08:00:00 11,6 9,3 36 19 SSW 1006,9 35
19.10.2019 07:00:00 - - - - - - -
19.10.2019 06:00:00 - - - - - - -
19.10.2019 05:00:00 11,7 9,3 36 19 SSW 1006,3 35
19.10.2019 04:00:00 - - - - - - -
19.10.2019 03:00:00 - - - - - - -
19.10.2019 02:00:00 12,0 9,2 40 21 SW 1005,6 65
19.10.2019 01:00:00 - - - - - - -
19.10.2019 00:00:00 - - - - - - -
18.10.2019 23:00:00 12,7 9,5 43 23 SW 1003,7 65
18.10.2019 22:00:00 - - - - - - -
18.10.2019 21:00:00 - - - - - - -
18.10.2019 20:00:00 13,2 12,6 43 23 S 1002,4 10
18.10.2019 19:00:00 - - - - - - -
18.10.2019 18:00:00 - - - - - - -
18.10.2019 17:00:00 13,5 12,7 25 14 SE 1004,3 18
18.10.2019 16:00:00 - - - - - - -
18.10.2019 15:00:00 - - - - - - -
18.10.2019 14:00:00 14,7 14,1 25 14 S 1006,5 9
18.10.2019 13:00:00 - - - - - - -
18.10.2019 12:00:00 - - - - - - -
18.10.2019 11:00:00 13,7 13,4 25 14 S 1007,9 7
18.10.2019 10:00:00 - - - - - - -
18.10.2019 09:00:00 - - - - - - -
18.10.2019 08:00:00 12,6 12,3 25 14 SSE 1008,2 18
18.10.2019 07:00:00 - - - - - - -
18.10.2019 06:00:00 - - - - - - -
18.10.2019 05:00:00 12,8 12,5 14 8 ESE 1009,6 6
18.10.2019 04:00:00 - - - - - - -
18.10.2019 03:00:00 - - - - - - -
18.10.2019 02:00:00 11,3 11,0 4 2 SW 1010,9 11
18.10.2019 01:00:00 - - - - - - -
18.10.2019 00:00:00 - - - - - - -
17.10.2019 23:00:00 12,4 12,1 18 10 WSW 1011,3 0,1
17.10.2019 22:00:00 - - - - - - -
17.10.2019 21:00:00 - - - - - - -
17.10.2019 20:00:00 13,2 12,9 14 8 SSW 1010,8 5
17.10.2019 19:00:00 - - - - - - -
17.10.2019 18:00:00 - - - - - - -
17.10.2019 17:00:00 13,5 13,2 18 10 SSW 1009,7 2,5
17.10.2019 16:00:00 - - - - - - -
17.10.2019 15:00:00 - - - - - - -
17.10.2019 14:00:00 13,8 13,3 25 14 SSW 1008,9 6
17.10.2019 13:00:00 - - - - - - -
17.10.2019 12:00:00 - - - - - - -
17.10.2019 11:00:00 13,0 12,7 25 14 S 1008,6 2,4
17.10.2019 10:00:00 - - - - - - -
17.10.2019 09:00:00 - - - - - - -
17.10.2019 08:00:00 12,1 11,8 22 12 S 1008,2 5
17.10.2019 07:00:00 - - - - - - -
17.10.2019 06:00:00 - - - - - - -
17.10.2019 05:00:00 11,0 10,4 11 6 S 1008,5 3,8
17.10.2019 04:00:00 - - - - - - -
17.10.2019 03:00:00 - - - - - - -
17.10.2019 02:00:00 12,2 11,6 22 12 W 1008,2 8
17.10.2019 01:00:00 - - - - - - -
17.10.2019 00:00:00 - - - - - - -
16.10.2019 23:00:00 12,8 12,3 18 10 W 1007,5 6
16.10.2019 22:00:00 - - - - - - -
16.10.2019 21:00:00 - - - - - - -
16.10.2019 20:00:00 12,7 12,2 25 14 W 1006,3 11
16.10.2019 19:00:00 - - - - - - -
16.10.2019 18:00:00 - - - - - - -
16.10.2019 17:00:00 12,8 12,3 14 8 WNW 1005,3 1,1
16.10.2019 16:00:00 - - - - - - -
16.10.2019 15:00:00 - - - - - - -
16.10.2019 14:00:00 12,0 11,7 14 8 NNW 1004,7 4,5
16.10.2019 13:00:00 - - - - - - -
16.10.2019 12:00:00 - - - - - - -
16.10.2019 11:00:00 11,9 11,6 18 10 NNW 1004,8 -
16.10.2019 10:00:00 - - - - - - -
16.10.2019 09:00:00 - - - - - - -
16.10.2019 08:00:00 11,4 11,1 4 2 N 1004,4 -
16.10.2019 07:00:00 - - - - - - -
16.10.2019 06:00:00 - - - - - - -
16.10.2019 05:00:00 11,4 11,1 11 6 NNE 1004,9 -
16.10.2019 04:00:00 - - - - - - -
16.10.2019 03:00:00 - - - - - - -
16.10.2019 02:00:00 9,8 9,5 11 6 NNE 1005,8 -
16.10.2019 01:00:00 - - - - - - -
16.10.2019 00:00:00 - - - - - - -
15.10.2019 23:00:00 11,1 10,5 14 8 E 1006,3 4,5
15.10.2019 22:00:00 - - - - - - -
15.10.2019 21:00:00 - - - - - - -
15.10.2019 20:00:00 12,5 11,9 18 10 ESE 1007,1 -
15.10.2019 19:00:00 - - - - - - -
15.10.2019 18:00:00 - - - - - - -
15.10.2019 17:00:00 13,1 12,0 25 14 ESE 1006,5 5
15.10.2019 16:00:00 - - - - - - -
15.10.2019 15:00:00 - - - - - - -
15.10.2019 14:00:00 13,8 12,0 36 19 ESE 1007,4 -
15.10.2019 13:00:00 - - - - - - -
15.10.2019 12:00:00 - - - - - - -
15.10.2019 11:00:00 13,1 11,3 43 23 ESE 1008,8 -
15.10.2019 10:00:00 - - - - - - -
15.10.2019 09:00:00 - - - - - - -
15.10.2019 08:00:00 11,5 10,1 47 25 E 1010,3 -
15.10.2019 07:00:00 - - - - - - -
15.10.2019 06:00:00 - - - - - - -
15.10.2019 05:00:00 10,4 8,5 36 19 E 1012,9 -
15.10.2019 04:00:00 - - - - - - -
15.10.2019 03:00:00 - - - - - - -
15.10.2019 02:00:00 10,0 7,9 18 10 E 1014,7 0,1
15.10.2019 01:00:00 - - - - - - -
15.10.2019 00:00:00 - - - - - - -
14.10.2019 23:00:00 10,5 7,7 14 8 ENE 1015,2 0,1
14.10.2019 22:00:00 - - - - - - -
14.10.2019 21:00:00 - - - - - - -
14.10.2019 20:00:00 10,6 7,8 7 4 NE 1016,3 50
14.10.2019 19:00:00 - - - - - - -
14.10.2019 18:00:00 - - - - - - -
14.10.2019 17:00:00 12,5 8,6 22 12 NW 1015,4 -
14.10.2019 16:00:00 - - - - - - -
14.10.2019 15:00:00 - - - - - - -
14.10.2019 14:00:00 12,9 8,4 36 19 WNW 1014,6 -
14.10.2019 13:00:00 - - - - - - -
14.10.2019 12:00:00 - - - - - - -
14.10.2019 11:00:00 13,2 9,3 36 19 W 1012,2 30
14.10.2019 10:00:00 - - - - - - -
14.10.2019 09:00:00 - - - - - - -
14.10.2019 08:00:00 13,8 10,6 47 25 WSW 1008,5 24
14.10.2019 07:00:00 - - - - - - -
14.10.2019 06:00:00 - - - - - - -
14.10.2019 05:00:00 14,2 12,1 47 25 WSW 1005,8 35
14.10.2019 04:00:00 - - - - - - -

tt = temperature
td = dewpoint
ff = wind speed
dd = wind direction
ppp = reduced air pressure
vv = visibility

Next stations